[[{"header":{"parameterUnit":"m.s-1","parameterCategory":1,"la1":30.2991,"la2":30.254,"lo1":-89.0895,"lo2":-89.0444,"dy":0.0017,"dx":0.0017,"nx":28,"ny":28,"refTime":"2024-05-15T03:00:00:Z","depth":0,"parameterNumber":2,"parameterNumberName":"U-component_of_WINDS"},"data":[0,0,0,0,0,0,0,0,0,0,0,0,0,0,0,0,0,0,0,0,0,0,0,0,0,0,0,0,0,0,0,0,0,0,0,0,0,0,0,0,0,0,0,0,0,0,0,0,0,0,0,0,0,0,0,0,0,0,3.5054,3.5055,0,3.5201,3.5203,3.5205,3.5139,3.5135,3.5132,3.5128,3.5287,3.5294,3.5302,0,0,0,0,0,0,0,0,0,0,0,0,0,3.4721,3.4728,3.5054,3.5055,3.5057,3.5201,3.5203,3.5205,3.514,3.5135,3.5131,3.5127,3.5284,3.5293,3.5303,0,0,0,0,0,0,0,0,0,0,0,0,0,3.4867,3.473,3.5053,3.5042,3.5042,3.5201,3.5203,3.5206,3.5141,3.5135,3.513,3.5124,3.5281,3.5293,3.5304,3.5485,0,0,3.5339,3.5344,0,0,0,0,0,0,0,0,3.4859,3.4879,3.5042,3.5043,3.5044,3.5146,3.5144,3.5299,3.5142,3.5104,3.5128,3.5122,3.5245,3.5259,3.5299,3.5492,3.5499,3.534,3.5347,3.5352,3.5355,0,0,0,0,0,0,0,3.4849,3.4873,3.5112,3.5044,3.5045,3.5031,3.5046,3.5173,3.5204,3.5106,3.5102,3.512,3.5244,3.5288,3.5302,3.5501,3.534,3.535,3.5357,3.5361,3.5849,3.5855,0,0,0,0,0,0,3.4838,3.4865,3.5108,3.5117,3.4936,3.5042,3.5058,3.5119,3.5202,3.5209,3.5124,3.5116,3.5271,3.5289,3.5308,3.5525,3.5352,3.5362,3.5369,3.5843,3.5851,3.5857,0,0,0,0,0,0,3.4831,3.486,3.5102,3.4989,3.5019,3.5053,3.5122,3.5125,3.5168,3.5215,3.5221,3.5163,3.5268,3.5292,3.544,3.5529,3.5368,3.5378,3.5836,3.5846,3.5854,3.596,0,0,0,0,0,0,3.4822,3.4858,3.4926,3.4991,3.5025,3.523,3.5127,3.5131,3.5187,3.5178,3.5253,3.5261,3.5265,3.5424,3.5452,3.5542,3.5387,3.5829,3.584,3.5851,3.5949,3.5972,3.5991,0,0,0,0,0,3.481,3.4951,3.493,3.4959,3.511,3.5236,3.5255,3.5256,3.5194,3.5264,3.5294,3.5258,3.5514,3.5439,3.5471,3.5566,3.5823,3.5837,3.585,3.5939,3.5967,3.5991,0,0,0,0,0,0,3.4898,3.496,3.4936,3.5103,3.5164,3.5224,3.5312,3.5285,3.5367,3.5356,3.5355,3.5372,3.5526,3.5561,3.5476,3.5745,3.566,3.568,3.5717,3.5744,3.5764,3.5753,3.5396,0,0,0,0,0,3.4936,3.5031,3.5081,3.5223,3.5254,3.5278,3.5333,3.5327,3.5392,3.5418,3.5459,3.5526,3.5621,3.5684,3.5774,3.5953,3.5969,3.6034,3.6055,3.6072,3.609,3.6187,3.6217,3.5902,3.5902,3.5902,0,0,3.5018,3.5063,3.5123,3.5242,3.5288,3.5388,3.53,3.541,3.5484,3.5436,3.5578,3.5611,3.5684,3.5849,3.5923,3.5882,3.618,3.6089,3.6103,3.6112,3.6205,3.6234,3.6261,3.5912,3.591,3.5909,0,0,3.5217,3.526,3.5382,3.5431,3.5502,3.5516,3.5546,3.561,3.5629,3.5771,3.5736,3.5826,3.599,3.6044,3.6093,3.631,3.6281,3.634,3.6452,3.6546,3.6571,3.6593,3.6671,3.6699,3.6358,3.6358,3.6358,0,3.5309,3.5456,3.545,3.5562,3.5615,3.5572,3.5698,3.5746,3.5844,3.5883,3.5834,3.6039,3.6086,3.6262,3.6315,3.6356,3.6391,3.6332,3.6568,3.659,3.661,3.6685,3.6714,3.6365,3.6364,3.6364,3.6363,0,3.5566,3.5669,3.576,3.5853,3.5916,3.6035,3.6048,3.6114,3.6102,3.6122,3.6268,3.6322,3.6423,3.6464,3.6456,3.664,3.6612,3.6566,3.6481,3.6647,3.6717,3.6746,3.6375,3.6372,3.637,3.6369,0,0,3.5827,3.5913,3.5946,3.5988,3.6062,3.6143,3.6259,3.6354,3.6411,3.648,3.6579,3.6718,3.6675,3.6731,3.6728,3.6811,3.698,3.6755,3.6756,3.6795,3.7187,3.7222,3.7255,3.696,3.6966,3.697,3.7181,0,3.6031,3.6233,3.623,3.6418,3.6513,3.6473,3.6575,3.6633,3.6654,3.6739,3.6764,3.6863,3.6799,3.6832,3.6912,3.6943,3.7059,3.6927,3.7054,3.7059,3.7038,3.7292,3.7329,3.7526,3.7209,3.7213,3.7217,0,3.6297,3.6372,3.6568,3.6628,3.6668,3.6759,3.6846,3.6927,3.6992,3.7002,3.7063,3.7047,3.7168,3.7077,3.7244,3.7154,3.7206,3.7229,3.7237,3.725,3.7149,3.7312,3.7588,3.7618,3.726,3.7256,3.7253,0,3.6468,3.6618,3.6754,3.6791,3.6864,3.6929,3.6963,3.7022,3.708,3.7157,3.7194,3.7285,3.7335,3.7406,3.7416,3.7349,3.7584,3.7494,3.7597,3.7597,3.7649,3.7646,3.7938,3.7681,3.7681,3.768,3.768,0,3.6697,3.6819,3.6832,3.6916,3.7052,3.7048,3.7183,3.7212,3.7265,3.7355,3.7327,3.7413,3.7419,3.7508,3.7517,3.7654,3.7677,3.7689,3.769,3.7692,3.7691,3.7727,3.7714,3.7688,3.7686,3.7685,3.7683,0,3.6911,3.6924,3.7071,3.7127,3.7144,3.7242,3.7291,3.7372,3.739,3.7505,3.7532,3.7561,3.7664,3.7679,3.7802,3.7807,3.7971,3.7958,3.7949,3.7947,3.8049,3.8039,3.8376,3.842,3.8133,3.8136,3.8138,0,3.7057,3.715,3.7215,3.7272,3.7308,3.7401,3.7459,3.7459,3.752,3.7601,3.7673,3.7772,3.7852,3.8019,3.8053,3.8146,3.8135,3.8246,3.8149,3.8148,3.8137,3.8132,3.8141,3.8265,3.8268,3.8271,3.8273,0,3.7315,3.7316,3.7399,3.7484,3.7553,3.7621,3.7684,3.7733,3.7742,3.7813,3.7916,3.7978,3.81,3.82,3.8292,3.8329,3.8304,3.8303,3.8332,3.8335,3.8326,3.8333,3.8001,3.8296,3.8293,3.8292,3.8291,3.829,3.75,3.758,3.7638,3.7731,3.7778,3.7838,3.7917,3.7943,3.8029,3.8127,3.8122,3.8236,3.8299,3.8419,3.8463,3.8553,3.8517,3.8559,3.857,3.858,3.859,3.8311,3.857,3.8569,3.8569,3.8568,3.8568,0,3.7757,3.7791,3.7876,3.7965,3.8039,3.8004,3.8073,3.8138,3.8237,3.8297,3.8375,3.8494,3.859,3.8631,3.8725,3.879,3.8781,3.8815,3.8811,3.882,3.8617,3.8582,3.8821,3.8821,3.8821,3.8821,3.8821,3.8821,3.7899,3.8032,3.804,3.8197,3.8232,3.8341,3.8383,3.8439,3.8486,3.8619,3.8698,3.8722,3.8775,3.8873,3.896,3.897,3.9006,3.9046,3.9051,3.886,3.8835,3.881,3.8778,3.9054,3.9055,3.9247,3.9249,3.925]},{"header":{"parameterUnit":"m.s-1","parameterCategory":1,"la1":30.2991,"la2":30.254,"lo1":-89.0895,"lo2":-89.0444,"dy":0.0017,"dx":0.0017,"nx":28,"ny":28,"refTime":"2024-05-15T03:00:00:Z","depth":0,"parameterNumber":3,"parameterNumberName":"V-component_of_WINDS"},"data":[0,0,0,0,0,0,0,0,0,0,0,0,0,0,0,0,0,0,0,0,0,0,0,0,0,0,0,0,0,0,0,0,0,0,0,0,0,0,0,0,0,0,0,0,0,0,0,0,0,0,0,0,0,0,0,0,0,0,-0.5496,-0.5496,0,-0.5552,-0.5553,-0.5554,-0.5587,-0.5587,-0.5587,-0.5587,-0.5646,-0.5647,-0.5649,0,0,0,0,0,0,0,0,0,0,0,0,0,-0.5418,-0.5419,-0.5496,-0.5497,-0.5497,-0.5552,-0.5553,-0.5554,-0.5587,-0.5587,-0.5587,-0.5587,-0.5645,-0.5647,-0.5649,0,0,0,0,0,0,0,0,0,0,0,0,0,-0.5461,-0.542,-0.5496,-0.552,-0.5523,-0.5552,-0.5553,-0.5554,-0.5587,-0.5587,-0.5587,-0.5587,-0.5645,-0.5647,-0.5649,-0.5658,0,0,-0.5656,-0.5657,0,0,0,0,0,0,0,0,-0.5458,-0.5464,-0.5516,-0.5519,-0.5522,-0.5563,-0.5547,-0.5589,-0.5587,-0.5562,-0.5587,-0.5587,-0.5618,-0.5623,-0.5633,-0.5661,-0.5664,-0.5656,-0.5657,-0.5658,-0.5659,0,0,0,0,0,0,0,-0.5455,-0.5461,-0.5518,-0.5517,-0.552,-0.5529,-0.5535,-0.5555,-0.5589,-0.5565,-0.5567,-0.5573,-0.562,-0.5631,-0.5634,-0.5665,-0.5656,-0.5658,-0.5659,-0.566,-0.5705,-0.5704,0,0,0,0,0,0,-0.5448,-0.5459,-0.5516,-0.552,-0.549,-0.553,-0.5537,-0.5549,-0.5588,-0.5595,-0.5573,-0.5575,-0.5627,-0.5632,-0.5637,-0.565,-0.5658,-0.566,-0.5661,-0.5705,-0.5705,-0.5704,0,0,0,0,0,0,-0.5446,-0.5453,-0.5514,-0.549,-0.5498,-0.5531,-0.5545,-0.555,-0.5561,-0.5595,-0.5601,-0.5578,-0.5627,-0.5633,-0.5653,-0.5653,-0.5661,-0.5663,-0.5705,-0.5705,-0.5704,-0.5678,0,0,0,0,0,0,-0.5444,-0.5452,-0.5456,-0.549,-0.55,-0.5529,-0.5545,-0.5551,-0.5565,-0.5567,-0.5601,-0.5607,-0.5628,-0.5649,-0.5655,-0.5656,-0.5665,-0.5705,-0.5705,-0.5704,-0.5679,-0.5677,-0.5675,0,0,0,0,0,-0.5441,-0.5446,-0.5456,-0.5462,-0.5505,-0.5529,-0.5535,-0.5558,-0.5564,-0.5569,-0.559,-0.5606,-0.5652,-0.5651,-0.5658,-0.5659,-0.5705,-0.5705,-0.5705,-0.568,-0.5677,-0.5675,0,0,0,0,0,0,-0.5411,-0.5451,-0.5462,-0.5478,-0.55,-0.5534,-0.554,-0.5555,-0.5575,-0.5577,-0.5606,-0.5613,-0.563,-0.5647,-0.5645,-0.5671,-0.568,-0.5681,-0.5659,-0.5657,-0.5655,-0.565,-0.5667,0,0,0,0,0,-0.5406,-0.5422,-0.5456,-0.5467,-0.5478,-0.5507,-0.5518,-0.5535,-0.5559,-0.5568,-0.5591,-0.5614,-0.5634,-0.5647,-0.5667,-0.5682,-0.569,-0.5686,-0.5684,-0.5682,-0.5683,-0.5692,-0.5691,-0.5704,-0.5704,-0.5704,0,0,-0.5397,-0.542,-0.5429,-0.5462,-0.5481,-0.5497,-0.5514,-0.5531,-0.5543,-0.5571,-0.559,-0.5608,-0.5636,-0.5653,-0.5662,-0.5668,-0.5681,-0.5682,-0.568,-0.5682,-0.5692,-0.5691,-0.5689,-0.5703,-0.5703,-0.5703,0,0,-0.5387,-0.5407,-0.5418,-0.5436,-0.5465,-0.5484,-0.5487,-0.552,-0.5532,-0.5553,-0.5574,-0.5589,-0.5623,-0.5642,-0.5656,-0.5654,-0.5669,-0.566,-0.565,-0.5659,-0.5658,-0.5657,-0.5657,-0.5656,-0.5661,-0.566,-0.566,0,-0.5371,-0.5396,-0.5422,-0.5437,-0.5451,-0.5477,-0.5489,-0.5506,-0.5539,-0.5549,-0.5555,-0.5597,-0.5618,-0.564,-0.564,-0.565,-0.5654,-0.5656,-0.5656,-0.5655,-0.5655,-0.5655,-0.5655,-0.5659,-0.5659,-0.5659,-0.566,0,-0.5376,-0.5393,-0.5399,-0.543,-0.5445,-0.5459,-0.5487,-0.5499,-0.5514,-0.5534,-0.5554,-0.558,-0.5605,-0.5612,-0.5627,-0.5637,-0.5639,-0.565,-0.566,-0.5652,-0.5652,-0.5653,-0.5657,-0.5658,-0.5658,-0.5658,0,0,-0.5348,-0.5394,-0.5396,-0.541,-0.5444,-0.5458,-0.5473,-0.5498,-0.5508,-0.5531,-0.5544,-0.5572,-0.5583,-0.5599,-0.5616,-0.5624,-0.5622,-0.5634,-0.5635,-0.5631,-0.5634,-0.5625,-0.5625,-0.5632,-0.5632,-0.5632,-0.5632,0,-0.5344,-0.5371,-0.5395,-0.5414,-0.543,-0.5455,-0.5469,-0.5491,-0.551,-0.5527,-0.5548,-0.5567,-0.5579,-0.5589,-0.5598,-0.562,-0.5623,-0.5621,-0.5646,-0.5646,-0.5637,-0.5625,-0.5616,-0.5614,-0.5632,-0.5632,-0.5632,0,-0.5341,-0.5363,-0.5383,-0.5416,-0.5423,-0.5435,-0.546,-0.5476,-0.5502,-0.5515,-0.5533,-0.5552,-0.557,-0.5578,-0.5603,-0.5601,-0.5613,-0.5626,-0.5627,-0.5629,-0.5638,-0.5628,-0.5614,-0.5613,-0.5633,-0.5633,-0.5633,0,-0.5319,-0.5353,-0.537,-0.5382,-0.542,-0.5427,-0.5444,-0.547,-0.5484,-0.5506,-0.5515,-0.554,-0.5553,-0.5571,-0.5597,-0.5601,-0.5619,-0.563,-0.5631,-0.563,-0.5633,-0.5633,-0.5621,-0.5641,-0.5641,-0.5641,-0.5641,0,-0.5311,-0.5322,-0.536,-0.537,-0.5385,-0.5412,-0.5426,-0.5444,-0.5468,-0.5482,-0.5506,-0.5519,-0.5552,-0.557,-0.559,-0.5607,-0.5613,-0.5625,-0.563,-0.5622,-0.5621,-0.563,-0.5631,-0.5641,-0.5641,-0.5641,-0.5641,0,-0.5288,-0.5313,-0.5334,-0.5368,-0.5377,-0.5386,-0.5416,-0.5427,-0.5448,-0.5466,-0.5472,-0.5504,-0.5526,-0.5553,-0.5584,-0.5597,-0.5613,-0.5621,-0.5604,-0.5607,-0.5606,-0.5606,-0.56,-0.5601,-0.562,-0.562,-0.562,0,-0.5281,-0.529,-0.5326,-0.5337,-0.5353,-0.5371,-0.5385,-0.5413,-0.5427,-0.5458,-0.5466,-0.549,-0.551,-0.5544,-0.5571,-0.5595,-0.5603,-0.5599,-0.5607,-0.5599,-0.5603,-0.5602,-0.5603,-0.5597,-0.5597,-0.5597,-0.5596,0,-0.5265,-0.5278,-0.5297,-0.5321,-0.5337,-0.5357,-0.5379,-0.5387,-0.542,-0.5434,-0.5457,-0.5473,-0.5505,-0.5528,-0.5556,-0.5573,-0.559,-0.5594,-0.5595,-0.5588,-0.5577,-0.5583,-0.5599,-0.5594,-0.5594,-0.5594,-0.5594,-0.5594,-0.525,-0.526,-0.5286,-0.5307,-0.5326,-0.5346,-0.5358,-0.538,-0.54,-0.5427,-0.5443,-0.5465,-0.5492,-0.5531,-0.5548,-0.5566,-0.5572,-0.5574,-0.5575,-0.5575,-0.5573,-0.5575,-0.5571,-0.5571,-0.5572,-0.5572,-0.5572,0,-0.5235,-0.5254,-0.5273,-0.5302,-0.5319,-0.5334,-0.5358,-0.5371,-0.5391,-0.5414,-0.5434,-0.546,-0.5484,-0.5512,-0.5537,-0.5546,-0.5555,-0.5552,-0.5552,-0.5555,-0.5566,-0.5562,-0.5545,-0.5545,-0.5545,-0.5545,-0.5545,-0.5545,-0.523,-0.5247,-0.5263,-0.529,-0.5309,-0.5331,-0.5344,-0.5362,-0.5381,-0.541,-0.5429,-0.5447,-0.5473,-0.55,-0.5523,-0.553,-0.5539,-0.5533,-0.5543,-0.5552,-0.5555,-0.5557,-0.5553,-0.5535,-0.5535,-0.5532,-0.5532,-0.5532]}]]